This demonstration page uses our WeatherBlox Daily Observations layout. Learn more.

Left ArrowRight Arrow

Hourly Observations for May 30, 2016

Temp ( °F °C ) Dew Point ( °F °C ) Humidity (%) Winds ( mph kmh ) Pressure ( in mb ) Visibility ( mi km ) Precip ( " mm )
12:53 am 00:53 Mostly Clear 67 19.4 63 17.2 87 87 N N/A 30.01 1016 10 16 N/A
1:53 am 01:53 Mostly Cloudy 66 18.9 63 17.2 90 90 SE 5 7 30.01 1016 10 16 N/A
2:53 am 02:53 Mostly Cloudy 69 20.6 64 17.8 84 84 N N/A 30.01 1016 10 16 N/A
3:53 am 03:53 Partly Cloudy 67 19.4 64 17.8 91 91 N N/A 30.02 1017 10 16 N/A
4:53 am 04:53 Clear 65 18.3 63 17.2 93 93 N N/A 30.02 1017 9 14 N/A
5:53 am 05:53 Clear 64 17.8 62 16.7 93 93 N N/A 30.03 1017 7 11 N/A
6:53 am 06:53 Sunny with Mist and Fog 63 17.2 61 16.1 93 93 N N/A 30.04 1017 5 8 N/A
7:53 am 07:53 Sunny 70 21.1 65 18.3 84 84 N N/A 30.04 1017 9 14 N/A
8:53 am 08:53 Sunny 74 23.3 62 16.7 67 67 N N/A 30.05 1018 10 16 N/A
9:53 am 09:53 Sunny 79 26.1 61 16.1 54 54 N 3 6 30.05 1018 10 16 N/A
10:53 am 10:53 Sunny 81 27.2 61 16.1 51 51 N 5 7 30.05 1018 10 16 N/A
11:53 am 11:53 Sunny 83 28.3 58 14.4 43 43 WNW 5 7 30.05 1018 10 16 N/A
12:53 pm 12:53 Mostly Sunny 84 28.9 56 13.3 38 38 VRB 7 11 30.03 1017 10 16 N/A
1:53 pm 13:53 Sunny 85 29.4 56 13.3 37 37 VRB 6 9 30.03 1017 10 16 N/A
2:53 pm 14:53 Sunny 87 30.6 57 13.9 36 36 NW 8 13 30.01 1016 10 16 N/A
3:53 pm 15:53 Partly Cloudy 87 30.6 55 12.8 34 34 N N/A 30.00 1016 10 16 N/A
4:53 pm 16:53 Mostly Sunny 88 31.1 55 12.8 33 33 N 9 15 29.98 1015 10 16 N/A
5:53 pm 17:53 Sunny 86 30 53 11.7 32 32 N N/A 29.97 1015 10 16 N/A
6:53 pm 18:53 Sunny 87 30.6 55 12.8 34 34 N N/A 29.96 1015 10 16 N/A
7:53 pm 19:53 Sunny 83 28.3 64 17.8 53 53 N N/A 29.96 1014 10 16 N/A
8:53 pm 20:53 Sunny 72 22.2 64 17.8 76 76 N N/A 29.96 1015 10 16 N/A
9:53 pm 21:53 Clear 68 20 60 15.6 76 76 N N/A 29.97 1015 10 16 N/A
10:53 pm 22:53 Clear 66 18.9 60 15.6 81 81 N N/A 29.98 1015 10 16 N/A
11:53 pm 23:53 Clear 65 18.3 61 16.1 87 87 N N/A 29.98 1015 10 16 N/A

Powered by AerisWeather